Location: Asheville, NC
(35.6000°N, 82.5500°W)
Time: 08:54:08
(UTC-05:00)

KKS-1 - Pass Details

Date: 09 February 2018
Orbit: 638 x 650 km, 98.3° (Epoch: 19 February)

Event Time Altitude Azimuth Distance (km) Brightness Sun altitude
Rises 06:18:12 0° 205° (SSW) 2,923 ? -13.7°
Reaches altitude 10° 06:21:06 10° 225° (SW) 2,021 ? -13.1°
Enters shadow 06:23:30 17° 259° (WSW) 1,635 ? -12.6°
